Flag for U.S.A. Weather past 2 weeks in Boston, Massachusetts, U.S.A.

Now
63 °F

Scattered clouds.


Feels Like: 63 °F
Forecast: 47 / 62 °F
Wind: 10 mph from West

Location: Logan International Airport

Current Time: Oct 25, 2014 at 5:20:02 PM

Latest Report: Oct 25, 2014 at 4:54 PM


Visibility: 10 mi

Pressure: 29.58 "Hg

Humidity: 40%

Dew point: 38 °F

Location of BostonLocation

Historic Weather in Boston — Graph

°F

Boston temperature yesterday

Maximum temperature yesterday: 51 °F (at 3:54 PM)
Minimum temperature yesterday: 47 °F (at 3:54 AM)
Average temperature yesterday: 49 °F

Past Weeks' High & Low Weather Summary

 TemperatureHumidityPressure
High81 °F (Oct 15, 1:54 PM)100% (Oct 16, 8:01 AM)30.37 "Hg (Oct 16, 8:01 AM)
Low39 °F (Oct 20, 7:54 AM)36% (Oct 20, 2:54 PM)29.48 "Hg (Oct 18, 4:54 PM)
Average56 °F77%29.92 "Hg
* Reported Oct 10 3:54 PM — Oct 25 3:54 PM, Boston, Weather by CustomWeather, © 2014

Note: Actual official high and low records may vary slightly from our data, if they occured in-between our weather recording intervals... More about our weather records

Advertising

Boston weather history for previous 24 hours

 ConditionsComfort  
Time TempWeatherWind HumidityBarometerVisibility
3:54 PM
Oct 25
64 °FPassing clouds.9 mph38%29.60 "Hg10 mi
2:54 PM63 °FPartly sunny.12 mph47%29.61 "Hg10 mi
1:54 PM64 °FPassing clouds.8 mph43%29.64 "Hg10 mi
12:54 PM62 °FSunny.13 mph46%29.66 "Hg10 mi
11:54 AM60 °FPassing clouds.9 mph52%29.69 "Hg10 mi
10:54 AM58 °FPassing clouds.10 mph56%29.71 "Hg10 mi
9:54 AM53 °FPassing clouds.10 mph64%29.73 "Hg10 mi
8:54 AM50 °FPassing clouds.9 mph66%29.75 "Hg10 mi
7:54 AM49 °FPassing clouds.8 mph71%29.76 "Hg10 mi
5:54 AM48 °FClear.8 mph74%29.75 "Hg10 mi
4:54 AM48 °FPassing clouds.7 mph74%29.75 "Hg10 mi
3:54 AM47 °FOvercast.7 mph80%29.74 "Hg10 mi
2:54 AM47 °FOvercast.10 mph83%29.75 "Hg10 mi
1:54 AM46 °FPassing clouds.10 mph83%29.75 "Hg10 mi
12:54 AM46 °FClear.7 mph83%29.75 "Hg10 mi
11:54 PM
Oct 24
47 °FPassing clouds.10 mph80%29.74 "Hg10 mi
10:54 PM47 °FPassing clouds.9 mph80%29.74 "Hg10 mi
9:54 PM48 °FPassing clouds.15 mph77%29.73 "Hg10 mi
8:54 PM49 °FMostly cloudy.15 mph74%29.74 "Hg10 mi
7:54 PM50 °FMostly cloudy.8 mph77%29.73 "Hg10 mi
6:54 PM51 °FMostly cloudy.8 mph74%29.72 "Hg10 mi
5:54 PM50 °FMostly cloudy.7 mph77%29.71 "Hg10 mi
Weather by CustomWeather, © 2014

See weather overviewHow to use our weather pages